Location: B?dargowo
(53.3916°N, 14.4413°E)
Time: 03:55:13
(UTC+00:00)

IGS 5A - Pass Details

Date: 05 February 2023
Orbit: 578 x 583 km, 97.5° (Epoch: 10 March)

Event Time Altitude Azimuth Distance (km) Brightness Sun altitude
Exits shadow 18:30:44 33° 186° (S) 989 4.5 -23.7°
Maximum altitude 18:32:28 66° 258° (WSW) 638 3.7 -24.0°
Drops below altitude 10° 18:36:35 10° 341° (NNW) 1,911 6.3 -24.6°
Sets 18:38:46 0° 345° (NNW) 2,814 7.2 -24.9°
